Weather reports worldwide

Advertisment
Cap Corse, France (7785): temperature & dewpoint: 16.08.2019 20:00:00 - 22.08.2019 20:00:00 (CEST)Cap Corse, France (7785): wind speed & gusts: 16.08.2019 20:00:00 - 22.08.2019 20:00:00 (CEST)Cap Corse, France (7785): wind direction: 16.08.2019 20:00:00 - 22.08.2019 20:00:00 (CEST)Cap Corse, France (7785): reduced air pressure: 16.08.2019 20:00:00 - 22.08.2019 20:00:00 (CEST)Cap Corse, France (7785): visibility: 16.08.2019 20:00:00 - 22.08.2019 20:00:00 (CEST)Cap Corse, France (7785): precipitation: 16.08.2019 20:00:00 - 22.08.2019 20:00:00 (CEST)
Date & Time tt [°C] td [°C] ff [km/h] ff [kn] fx [km/h] fx [kn] dd ppp [hPa] vv [km] rr [mm]
22.08.2019 20:00:00 25,7 22,8 11 6 27 14 ENE 1017,9 15 0,0
22.08.2019 19:00:00 26,2 22,7 22 12 26 14 NNE 1017,6 - 0,0
22.08.2019 18:00:00 26,8 22,2 13 7 24 13 N 1018,2 - 0,0
22.08.2019 17:00:00 26,6 22,9 19 11 29 15 NNE 1018,0 15 0,0
22.08.2019 16:00:00 27,1 22,5 23 13 31 17 NE 1018,2 - 0,0
22.08.2019 15:00:00 27,7 23,5 17 9 23 12 NNE 1018,6 - 0,0
22.08.2019 14:00:00 27,8 23,4 16 8 23 12 NE 1019,0 15 0,0
22.08.2019 13:00:00 26,8 23,1 16 9 22 12 ENE 1019,1 - 0,0
22.08.2019 12:00:00 27,6 22,8 15 8 28 15 ENE 1019,0 - 0,0
22.08.2019 11:00:00 27,7 23,1 20 11 29 16 E 1018,4 15 0,0
22.08.2019 10:00:00 26,5 23,0 16 9 24 13 E 1018,1 - 0,0
22.08.2019 09:00:00 26,1 21,1 4 2 12 6 NE 1018,2 - 0,0
22.08.2019 08:00:00 25,3 21,2 11 6 20 11 SW 1018,0 15 0,0
22.08.2019 07:00:00 23,2 18,5 4 2 22 12 E 1017,7 - 0,0
22.08.2019 06:00:00 23,2 19,6 21 11 25 13 ESE 1017,2 - 0,0
22.08.2019 05:00:00 22,6 19,2 0 0 13 7 N 1017,6 - 0,0
22.08.2019 04:00:00 23,6 18,0 8 4 12 7 NNE 1017,4 - 0,0
22.08.2019 03:00:00 23,7 16,2 10 5 11 6 W 1017,2 - 0,0
22.08.2019 02:00:00 24,2 17,2 6 3 27 15 E 1017,4 - 0,0
22.08.2019 01:00:00 25,0 15,3 14 8 21 11 ESE 1017,8 - 0,0
22.08.2019 00:00:00 24,3 14,4 6 4 15 8 E 1018,1 - 0,0
21.08.2019 23:00:00 24,1 16,9 13 7 19 11 ESE 1017,9 - 0,0
21.08.2019 22:00:00 23,4 20,5 9 5 13 7 E 1017,8 - 0,0
21.08.2019 21:00:00 24,3 21,4 2 1 6 4 NE 1017,4 - 0,0
21.08.2019 20:00:00 24,9 22,2 6 3 8 5 E 1016,9 - 0,0
21.08.2019 19:00:00 26,3 23,0 5 3 18 10 ENE 1016,9 - 0,0
21.08.2019 18:00:00 27,1 22,9 13 7 26 14 ENE 1017,1 - 0,0
21.08.2019 17:00:00 27,3 22,9 20 11 29 15 E 1016,9 12 0,0
21.08.2019 16:00:00 27,6 22,8 19 10 29 16 E 1017,1 - 0,0
21.08.2019 15:00:00 27,6 23,0 23 12 34 18 ENE 1017,3 - 0,0
21.08.2019 14:00:00 27,7 23,1 21 12 31 17 ENE 1017,5 - 0,0
21.08.2019 13:00:00 28,6 23,1 18 10 26 14 ENE 1017,9 - 0,0
21.08.2019 12:00:00 28,5 22,7 18 10 27 15 ENE 1018,1 - 0,0
21.08.2019 11:00:00 27,9 23,1 16 8 27 15 ENE 1018,1 12 0,0
21.08.2019 10:00:00 26,0 22,7 18 10 28 15 ENE 1017,9 - 0,0
21.08.2019 09:00:00 26,8 22,4 16 9 24 13 E 1017,7 - 0,0
21.08.2019 08:00:00 25,5 22,0 8 4 15 8 E 1017,7 12 0,0
21.08.2019 07:00:00 22,4 20,5 3 2 14 8 E 1017,6 - 0,0
21.08.2019 06:00:00 22,3 21,3 9 5 12 7 SW 1017,4 - 0,0
21.08.2019 05:00:00 22,2 21,0 5 3 12 6 SW 1017,2 12 0,0
21.08.2019 04:00:00 22,7 21,3 8 5 16 8 WSW 1017,2 - 0,0
21.08.2019 03:00:00 22,9 21,4 9 5 16 8 WSW 1017,2 - 0,0
21.08.2019 02:00:00 23,0 21,1 11 6 26 14 SW 1017,2 - 0,0
21.08.2019 01:00:00 22,6 17,3 12 6 20 11 SSW 1017,2 - 0,0
21.08.2019 00:00:00 23,9 21,8 13 7 22 12 WSW 1017,3 - 0,0
20.08.2019 23:00:00 24,3 22,2 14 8 39 21 WSW 1017,3 - 0,0
20.08.2019 22:00:00 24,7 22,2 18 10 49 26 WSW 1016,9 - 0,0
20.08.2019 21:00:00 25,2 22,7 26 14 52 28 WSW 1017,0 - 0,0
20.08.2019 20:00:00 25,9 21,1 28 15 50 27 SW 1016,6 15 0,0
20.08.2019 19:00:00 27,4 22,6 19 10 41 22 WSW 1016,6 - 0,0
20.08.2019 18:00:00 29,2 21,2 14 7 34 18 WSW 1016,5 - 0,0
20.08.2019 17:00:00 29,8 22,8 19 10 33 18 W 1016,4 15 0,0
20.08.2019 16:00:00 28,8 22,5 13 7 16 9 W 1016,7 - 0,0
20.08.2019 15:00:00 28,7 22,7 9 5 17 9 W 1016,8 - 0,0
20.08.2019 14:00:00 28,3 23,0 14 7 18 10 W 1017,1 - 0,0
20.08.2019 13:00:00 28,0 22,5 9 5 17 9 W 1017,1 - 0,0
20.08.2019 12:00:00 28,2 23,3 12 7 22 12 W 1017,5 - 0,0
20.08.2019 11:00:00 28,0 22,9 7 4 16 8 W 1017,4 25 0,0
20.08.2019 10:00:00 27,7 22,2 11 6 23 12 WNW 1017,0 - 0,0
20.08.2019 09:00:00 26,2 22,3 8 5 12 6 W 1016,7 - 0,0
20.08.2019 08:00:00 25,6 21,5 5 3 9 5 E 1016,4 25 0,0
20.08.2019 07:00:00 22,8 20,1 8 4 16 9 W 1016,3 - 0,0
20.08.2019 06:00:00 22,4 20,5 8 4 13 7 E 1016,2 - 0,0
20.08.2019 05:00:00 23,2 20,7 9 5 25 14 W 1016,4 20 0,0
20.08.2019 04:00:00 23,5 21,8 15 8 21 12 E 1016,6 - 0,0
20.08.2019 03:00:00 23,0 20,3 12 6 16 9 E 1017,0 - 0,0
20.08.2019 02:00:00 23,3 19,7 3 1 12 7 N 1017,5 - 0,0
20.08.2019 01:00:00 23,7 21,4 10 5 17 9 WSW 1017,6 - 0,0
20.08.2019 00:00:00 23,9 20,6 13 7 19 11 W 1017,7 - 0,0
19.08.2019 23:00:00 24,2 18,6 12 7 20 11 W 1017,8 - 0,0
19.08.2019 22:00:00 25,0 21,3 13 7 19 11 W 1017,6 - 0,0
19.08.2019 21:00:00 25,9 21,6 16 8 26 14 W 1017,4 - 0,0
19.08.2019 20:00:00 27,0 21,1 19 10 29 16 W 1016,8 25 0,0
19.08.2019 19:00:00 29,2 20,4 4 2 22 12 ENE 1016,7 - 0,0
19.08.2019 18:00:00 29,7 19,4 11 6 26 14 ESE 1016,5 - 0,0
19.08.2019 17:00:00 29,7 21,9 14 7 29 16 E 1016,5 20 0,0
19.08.2019 16:00:00 29,3 23,0 14 7 19 11 NE 1016,8 - 0,0
19.08.2019 15:00:00 29,7 21,9 9 5 18 10 NNE 1017,3 - 0,0
19.08.2019 14:00:00 29,8 22,3 10 5 16 9 NE 1017,1 20 0,0
19.08.2019 13:00:00 27,9 22,4 9 5 14 7 W 1017,2 - 0,0
19.08.2019 12:00:00 27,6 21,9 10 5 18 10 NNE 1017,1 - 0,0
19.08.2019 11:00:00 28,4 21,7 6 4 16 9 NW 1017,0 20 0,0
19.08.2019 10:00:00 28,4 21,7 6 3 19 11 W 1016,4 - 0,0
19.08.2019 09:00:00 26,1 21,1 9 5 13 7 W 1016,2 - 0,0
19.08.2019 08:00:00 25,2 21,1 4 2 7 4 WSW 1016,2 20 0,0
19.08.2019 07:00:00 22,4 19,8 3 2 11 6 ENE 1015,7 - 0,0
19.08.2019 06:00:00 22,3 20,4 5 3 11 6 WNW 1015,6 - 0,0
19.08.2019 05:00:00 22,3 19,8 2 1 5 3 W 1015,5 20 0,0
19.08.2019 04:00:00 22,8 19,6 4 2 8 5 ENE 1015,5 - 0,0
19.08.2019 03:00:00 23,4 19,5 8 4 12 7 WSW 1015,6 - 0,0
19.08.2019 02:00:00 22,9 19,9 4 2 9 5 W 1015,8 - 0,0
19.08.2019 01:00:00 23,3 20,2 6 3 9 5 E 1015,9 - 0,0
19.08.2019 00:00:00 23,1 20,1 5 3 10 6 W 1016,1 - 0,0
18.08.2019 23:00:00 23,8 20,1 5 3 17 9 E 1015,9 - 0,0
18.08.2019 22:00:00 24,7 20,8 11 6 20 11 SW 1015,6 - 0,0
18.08.2019 21:00:00 25,4 21,3 11 6 16 8 W 1015,4 - 0,0
18.08.2019 20:00:00 26,2 21,0 0 0 11 6 N 1015,1 20 0,0
18.08.2019 19:00:00 27,1 20,2 8 5 16 9 NW 1015,3 - 0,0
18.08.2019 18:00:00 28,6 19,8 10 5 19 11 WNW 1015,7 - 0,0
18.08.2019 17:00:00 28,2 22,2 15 8 19 10 WNW 1015,8 18 0,0
18.08.2019 16:00:00 28,4 22,4 9 5 16 9 WNW 1016,1 - 0,0
18.08.2019 15:00:00 28,5 21,8 8 5 14 7 W 1016,3 - 0,0
18.08.2019 14:00:00 28,5 20,8 9 5 13 7 W 1016,3 - 0,0
18.08.2019 13:00:00 27,4 21,7 10 6 19 10 W 1016,5 - 0,0
18.08.2019 12:00:00 26,8 21,6 12 6 18 10 W 1016,4 - 0,0
18.08.2019 11:00:00 27,1 22,1 10 5 20 11 W 1016,3 18 0,0
18.08.2019 10:00:00 27,1 21,8 7 4 16 8 W 1016,1 - 0,0
18.08.2019 09:00:00 25,6 21,1 8 4 15 8 W 1016,0 - 0,0
18.08.2019 08:00:00 24,8 20,5 4 2 19 10 WNW 1015,8 12 0,0
18.08.2019 07:00:00 21,5 18,9 4 2 10 5 NNW 1016,0 - 0,0
18.08.2019 06:00:00 21,7 19,3 4 2 23 13 WNW 1015,8 - 0,0
18.08.2019 05:00:00 21,0 19,5 8 4 12 6 E 1016,1 12 0,0
18.08.2019 04:00:00 21,6 20,2 9 5 16 9 E 1016,5 - 0,0
18.08.2019 03:00:00 22,0 20,3 8 4 22 12 SW 1016,6 - 0,0
18.08.2019 02:00:00 21,4 19,3 14 8 24 13 SW 1016,8 - 0,0
18.08.2019 01:00:00 22,6 20,5 13 7 29 16 SW 1016,8 - 0,0
18.08.2019 00:00:00 22,8 20,9 10 5 24 13 WSW 1017,1 - 0,0
17.08.2019 23:00:00 23,0 20,9 16 9 27 15 W 1017,0 - 0,0
17.08.2019 22:00:00 23,0 20,9 18 10 24 13 W 1016,9 - 0,0
17.08.2019 21:00:00 22,9 20,6 13 7 21 11 WSW 1016,6 - 0,0
17.08.2019 20:00:00 23,8 20,9 13 7 26 14 W 1016,6 - 0,0
17.08.2019 19:00:00 24,1 21,0 19 10 24 13 W 1016,6 - 0,0
17.08.2019 18:00:00 24,7 21,0 15 8 24 13 W 1017,1 - 0,0
17.08.2019 17:00:00 25,1 21,2 16 9 28 15 W 1016,9 - 0,0
17.08.2019 16:00:00 25,9 21,3 20 11 32 18 W 1017,2 - 0,0
17.08.2019 15:00:00 26,3 21,5 23 13 31 17 W 1017,4 - 0,0
17.08.2019 14:00:00 26,4 21,4 21 11 27 14 W 1017,6 - 0,0
17.08.2019 13:00:00 25,8 20,8 19 10 27 15 W 1017,8 - 0,0
17.08.2019 12:00:00 24,9 20,6 20 11 35 19 W 1017,8 - 0,0
17.08.2019 11:00:00 26,3 21,7 21 11 30 16 W 1017,5 12 0,0
17.08.2019 10:00:00 25,2 21,5 21 12 32 17 W 1017,4 - 0,0
17.08.2019 09:00:00 25,0 21,5 21 12 32 18 W 1017,2 - 0,0
17.08.2019 08:00:00 24,4 21,1 20 11 36 19 WSW 1016,9 12 0,0
17.08.2019 07:00:00 23,4 20,7 27 15 38 21 WSW 1016,2 - 0,0
17.08.2019 06:00:00 23,5 21,0 27 14 39 21 W 1016,3 - 0,0
17.08.2019 05:00:00 23,5 21,2 28 15 40 22 W 1016,1 12 0,0
17.08.2019 04:00:00 23,7 21,4 29 16 39 21 W 1016,2 - 0,0
17.08.2019 03:00:00 23,3 21,0 24 13 39 21 WSW 1016,3 - 0,0
17.08.2019 02:00:00 23,2 20,5 21 11 33 18 WSW 1016,7 - 0,0
17.08.2019 01:00:00 23,2 21,1 22 12 32 17 WSW 1016,8 - 0,0
17.08.2019 00:00:00 22,5 21,1 14 8 22 12 WSW 1016,8 - 0,0
16.08.2019 23:00:00 22,6 20,7 14 7 23 12 W 1016,5 - 0,0
16.08.2019 22:00:00 23,7 21,4 15 8 22 12 W 1016,4 - 0,0
16.08.2019 21:00:00 23,8 20,9 14 8 18 10 W 1015,7 - 0,0
16.08.2019 20:00:00 24,7 20,6 9 5 16 8 WNW 1015,1 18 0,0

tt = temperature
td = dewpoint
ff = wind speed
fx = gusts
dd = wind direction
ppp = reduced air pressure
vv = visibility
rr = precipitation

Next stations